Wind_Speed
24 25 25 24 23 22 21 20 19 18 17 15 14 13 13 13 13 15 16 18 19 17 16 15 13 12 11 10 9 8 8 8 7 6 5 5 5 6 6 6 5 5 5 5 5 6 5 4 5 5 5 6 7 8 8 8 7 6 6 7 6 6 6 6 6 7 8 8 7 7 7 6 6 6 6 6 7 8 7 6 7 9 10 11 11
24 25 26 26 25 24 22 21 20 19 18 16 15 14 13 13 13 14 15 17 18 18 16 15 14 12 11 10 9 9 8 8 8 7 6 5 4 5 6 6 6 5 4 4 4 5 4 4 4 5 5 5 6 7 8 8 8 7 6 6 6 6 6 6 6 7 7 7 7 7 6 6 6 6 6 6 6 7 7 7 8 9 10 11 11
25 25 26 26 26 25 24 23 21 20 18 17 15 15 14 14 13 13 14 15 17 18 17 16 14 14 13 11 11 10 9 8 8 8 7 5 4 4 5 6 6 5 5 4 4 4 4 4 4 4 5 5 6 7 8 9 8 7 6 6 6 7 7 6 6 6 7 7 7 6 6 5 5 6 6 6 5 6 7 8 9 10 10 11 12
24 25 26 26 26 26 26 24 22 21 20 19 17 16 15 14 14 13 13 14 16 17 17 16 15 15 14 13 12 11 10 9 9 8 7 5 4 3 4 6 6 5 5 4 4 4 3 4 4 5 5 6 6 7 8 9 8 7 6 6 7 7 7 6 5 5 6 7 6 5 5 4 4 5 5 6 6 6 7 8 9 10 11 11 12
21 25 25 26 26 26 25 24 23 22 20 20 18 17 16 15 14 14 13 14 15 16 17 17 16 15 15 14 13 12 11 10 8 7 7 6 4 4 4 5 6 6 5 4 3 3 3 4 4 4 5 6 7 8 8 8 7 7 7 7 7 7 8 7 6 6 6 6 5 5 4 3 3 5 5 6 7 7 7 8 10 12 11 12 13
17 21 25 25 25 25 24 24 23 22 21 20 19 18 16 15 15 15 14 14 14 16 17 17 17 16 14 13 12 11 10 9 8 8 7 7 6 5 4 5 5 5 5 4 3 3 3 4 4 4 5 6 7 8 8 7 7 7 7 8 8 8 9 9 8 7 6 6 6 5 4 3 4 5 6 7 8 9 9 8 9 12 12 12 13
15 19 23 24 24 24 23 23 23 22 21 20 20 19 18 16 16 16 15 14 15 15 16 17 17 16 15 13 12 12 11 10 9 9 9 8 7 6 5 5 5 5 4 4 4 3 4 4 4 4 5 5 6 7 7 7 7 8 8 8 8 8 9 9 9 8 7 6 6 5 4 4 4 5 7 9 9 9 10 9 9 12 12 13 13
16 18 21 23 24 24 23 22 22 22 22 21 20 19 19 18 17 16 16 15 15 15 15 16 16 15 15 14 13 13 12 12 11 10 10 9 9 7 6 5 5 5 5 5 5 4 4 5 5 5 5 5 5 6 6 7 7 8 8 8 8 8 8 8 8 8 8 7 6 5 5 4 5 6 7 9 10 10 10 10 10 12 13 13 13
17 18 20 22 23 24 23 23 22 22 22 21 21 20 19 19 18 17 17 16 16 16 15 16 15 15 15 15 14 14 13 13 12 11 11 10 10 8 7 6 6 6 6 5 5 5 5 5 5 5 5 5 5 6 6 7 7 7 7 7 8 8 7 7 7 7 7 7 6 5 5 5 6 7 8 9 11 12 11 10 11 13 13 14 13
17 19 20 20 20 21 21 22 22 22 23 23 21 21 20 20 19 18 17 17 17 16 16 16 16 16 16 15 15 15 14 14 13 12 11 11 10 9 8 7 7 7 7 6 6 6 6 5 5 5 5 5 5 5 6 7 7 7 7 7 7 7 7 7 7 7 6 7 7 6 5 6 6 7 8 9 11 13 13 11 12 13 14 14 13
15 18 20 18 18 20 21 21 22 23 24 24 23 22 21 21 20 18 17 17 17 17 16 16 16 16 16 15 15 15 15 15 13 12 12 11 11 10 9 8 8 8 8 7 7 7 6 6 6 5 5 5 4 5 6 7 7 7 7 7 7 7 7 7 7 7 7 7 7 6 6 6 6 7 8 9 10 12 13 13 14 14 14 14 13
14 15 18 19 19 21 21 22 23 24 25 25 25 24 22 21 21 20 19 18 17 17 17 17 16 16 16 16 16 16 16 15 14 14 13 12 11 10 10 10 9 9 9 8 8 8 7 7 7 6 5 5 4 5 6 7 7 7 8 8 8 7 7 7 6 6 7 7 7 7 7 7 7 8 9 9 10 11 12 13 14 14 14 14 12
16 15 17 20 19 19 20 22 24 25 26 26 26 25 24 22 21 21 20 19 18 18 17 17 17 17 17 17 17 17 17 16 15 15 14 14 13 12 11 11 10 10 9 9 9 9 8 7 7 6 6 5 5 5 5 6 6 7 7 8 8 8 7 7 6 6 7 7 7 7 7 7 7 8 9 10 11 12 13 13 14 15 14 14 12
15 16 18 19 18 17 19 21 23 24 25 26 26 26 26 24 22 21 21 20 19 18 18 17 17 17 17 17 17 18 17 17 16 15 16 16 15 14 13 12 12 11 11 11 10 10 9 8 7 6 6 5 5 5 5 5 6 6 7 7 7 8 8 7 7 6 6 6 7 8 8 7 7 8 9 10 10 12 13 14 14 14 15 14 13
14 15 17 17 17 16 17 18 20 21 23 24 26 27 26 25 23 22 21 21 20 19 18 17 17 17 18 17 18 18 18 18 16 16 16 17 17 16 14 14 13 13 13 12 11 11 10 9 8 7 6 6 6 5 5 5 5 5 6 6 7 8 7 7 7 7 6 6 6 7 7 7 7 8 9 10 11 12 13 14 14 14 15 14 12
15 16 18 18 19 17 16 17 18 19 20 22 25 26 26 25 24 23 22 21 20 20 19 17 17 17 18 18 18 18 18 18 17 16 16 17 18 17 16 15 15 14 14 13 12 11 11 10 9 8 7 6 6 6 5 5 5 5 5 5 6 7 7 7 7 7 6 6 6 6 6 6 7 8 9 10 12 13 13 13 14 14 15 14 12
14 15 16 18 21 20 17 17 18 18 19 20 22 23 24 24 24 24 23 22 21 21 20 18 18 17 18 18 18 18 18 18 18 17 17 18 18 18 17 17 16 15 15 14 13 12 11 11 10 9 8 7 6 6 6 6 6 5 5 5 5 6 6 6 6 6 6 6 5 5 5 5 6 7 8 9 11 12 12 13 13 13 15 15 13
13 13 14 15 18 20 21 20 19 18 18 19 20 21 22 23 24 24 24 23 22 21 21 20 19 18 18 18 18 18 18 19 19 19 19 19 18 18 18 18 17 16 16 15 14 13 12 11 11 10 9 8 7 7 6 6 6 6 6 5 5 5 5 5 5 5 5 6 6 5 5 5 5 6 7 8 9 10 10 11 12 13 14 15 14
14 15 15 14 15 18 20 21 19 18 17 18 18 19 21 23 24 25 25 25 24 23 22 21 20 19 18 18 18 19 19 20 21 21 20 20 19 19 19 18 18 17 16 15 14 14 13 12 11 11 10 10 9 8 7 7 7 7 6 6 6 6 5 5 5 5 5 5 5 5 5 5 5 6 6 8 9 9 9 11 12 13 14 16 15
13 15 16 17 17 17 18 18 19 18 17 17 17 17 20 22 24 27 28 29 28 27 25 23 21 20 19 19 19 19 20 20 21 21 21 21 20 20 19 19 19 18 18 17 16 14 14 13 12 12 11 11 10 10 9 9 8 8 7 7 7 7 6 6 6 6 6 5 5 5 5 5 5 5 6 7 8 9 10 11 13 13 15 16 16
12 14 15 17 19 20 19 20 20 19 18 18 18 19 20 21 21 25 26 27 28 28 27 26 24 22 21 20 19 20 20 20 20 21 22 22 22 21 20 20 20 19 19 18 17 16 15 14 14 13 12 12 11 11 11 11 10 9 9 8 8 8 8 7 7 7 7 6 6 5 5 5 5 5 6 7 8 9 10 11 13 14 15 16 17
11 12 14 15 17 18 19 20 21 21 21 20 19 20 20 19 20 22 23 24 27 28 27 27 27 25 24 22 21 21 21 21 20 21 22 23 23 22 22 21 20 20 20 20 19 18 17 16 15 14 13 13 12 12 12 12 11 11 10 10 9 9 9 9 8 8 8 7 7 6 6 6 5 5 6 7 8 9 10 12 13 14 15 16 17
9 11 13 14 15 17 20 22 24 25 25 23 21 21 21 20 19 19 20 21 24 25 27 28 28 27 26 25 23 23 22 21 21 21 21 22 23 23 23 22 21 21 21 21 20 20 19 18 17 16 15 14 14 13 13 13 12 12 12 11 11 11 10 10 10 10 10 9 8 8 8 7 7 6 6 7 7 9 10 12 13 15 16 17 18
9 10 12 14 16 17 19 23 25 26 27 27 26 25 23 22 20 19 21 21 21 23 26 28 28 27 27 27 26 25 24 23 22 21 21 21 22 23 24 23 22 22 22 22 22 22 21 20 19 18 17 16 15 15 15 14 14 14 13 13 12 12 12 12 11 11 11 11 10 10 10 10 9 8 8 8 9 9 10 11 13 15 16 18 19
6 9 11 13 16 17 19 21 22 23 26 29 30 27 25 23 21 21 23 22 20 21 24 26 28 28 28 28 28 26 25 24 23 22 21 21 22 23 23 23 24 24 23 23 23 23 22 21 20 20 19 19 18 17 17 16 16 16 15 14 14 13 13 13 13 13 12 12 12 12 12 12 11 10 10 11 11 11 11 11 13 14 16 18 19
2 5 9 12 14 17 18 20 21 21 23 26 28 27 27 27 24 22 24 24 22 22 23 25 27 29 29 29 29 28 27 26 25 24 23 22 22 23 23 23 24 24 24 24 24 24 24 23 22 21 21 21 20 20 19 18 18 18 18 17 16 15 15 14 14 14 14 14 13 13 14 14 14 13 13 13 13 13 13 13 13 14 16 17 19
2 3 5 8 11 15 17 18 19 20 22 23 23 24 27 30 29 25 25 26 26 25 25 27 28 29 30 30 29 29 28 28 27 26 25 24 24 24 23 24 24 25 25 25 25 24 24 24 23 23 23 22 22 22 22 21 21 20 20 19 18 17 17 16 16 16 16 16 15 15 15 16 16 16 15 15 16 16 15 15 15 16 17 17 19
4 4 3 4 6 10 13 16 17 17 19 19 20 22 26 29 30 29 27 27 28 28 28 29 30 31 31 30 29 29 29 29 28 28 27 26 26 25 25 24 25 25 25 25 25 25 24 24 24 25 25 25 24 24 24 23 23 23 22 21 20 20 19 18 18 18 18 18 17 17 17 18 18 18 18 18 18 18 17 17 18 18 18 19 20
2 3 2 2 3 4 7 10 13 14 16 17 17 19 22 24 26 28 29 28 29 28 27 27 30 31 31 30 30 30 29 29 29 29 29 28 28 27 27 27 27 26 26 26 26 26 26 25 25 25 26 26 27 26 26 25 25 24 24 23 22 22 21 21 20 20 20 20 20 19 19 20 20 20 20 20 20 20 20 19 20 20 21 21 21
2 1 1 1 2 2 4 7 9 10 13 16 17 17 18 19 22 25 28 30 30 29 26 25 28 31 31 31 31 31 30 30 30 31 30 30 30 30 29 29 29 28 28 28 28 28 28 27 26 26 26 27 28 28 28 27 26 26 25 25 24 24 24 23 23 23 23 23 22 22 22 22 22 22 22 22 22 22 21 21 21 22 22 23 24
5 4 4 3 2 2 3 5 6 8 9 11 14 17 17 17 19 22 25 29 31 31 28 27 28 30 31 32 32 31 30 30 31 31 31 32 32 32 32 31 31 31 30 30 30 30 30 29 28 28 28 28 28 28 28 28 27 27 27 27 27 27 26 26 26 26 25 25 24 24 24 24 25 24 23 23 23 23 23 23 23 23 24 25 25
6 5 5 4 3 3 3 3 5 7 9 9 11 13 15 16 18 19 22 25 29 31 30 29 30 30 30 31 31 32 32 31 31 31 32 33 33 33 33 33 33 33 32 33 33 32 32 31 30 30 30 30 29 28 27 27 27 28 28 29 29 29 29 28 28 28 27 26 26 26 26 26 27 26 25 25 25 25 24 24 24 24 25 25 26
6 5 5 4 4 4 4 4 5 6 8 9 11 13 15 15 15 17 19 22 26 30 32 33 32 31 30 30 30 32 33 32 32 32 32 33 34 34 34 34 34 34 34 34 34 34 33 33 33 32 32 31 30 29 28 27 26 27 27 28 29 30 30 29 29 29 28 28 28 28 28 28 28 27 26 26 26 25 25 25 25 26 26 26 26
7 6 5 4 4 3 3 3 4 5 7 8 9 12 13 14 14 15 16 18 22 26 31 32 32 32 31 29 29 30 32 33 33 33 33 34 35 34 34 35 35 35 36 35 34 34 34 34 34 34 33 32 31 30 29 27 27 27 27 28 29 30 30 30 29 29 29 29 28 28 28 28 28 27 27 26 26 26 26 26 26 27 27 26 26
9 8 7 6 5 4 3 3 3 3 4 5 6 7 8 10 12 14 15 16 18 20 24 27 28 30 31 30 28 29 32 32 33 34 34 35 35 35 35 35 35 36 36 35 34 35 35 34 34 34 34 33 32 30 29 28 27 28 28 29 30 31 31 31 30 29 29 29 29 29 29 28 28 28 27 26 25 25 26 27 27 27 27 27 27
13 12 11 10 9 7 6 5 4 4 4 5 5 5 6 6 8 10 13 15 16 18 20 22 24 26 29 30 30 30 31 33 34 34 35 35 35 35 35 35 36 36 36 35 35 35 35 34 33 34 34 33 31 30 29 28 27 28 29 31 31 31 31 31 30 29 29 29 29 29 29 29 29 28 27 26 25 25 27 28 28 28 27 28 28
20 18 17 16 15 14 12 10 9 7 7 7 7 6 6 6 7 8 10 13 15 17 19 20 22 23 25 28 32 32 31 33 34 35 36 36 36 36 35 35 36 36 36 35 35 35 35 34 33 33 33 32 30 29 29 28 27 28 30 31 32 32 32 31 31 30 29 29 29 29 29 29 29 28 27 26 26 27 28 28 28 27 27 27 28
23 23 23 22 21 20 19 17 16 14 12 11 10 9 8 8 8 9 9 11 13 15 18 20 21 22 22 25 29 30 30 32 34 35 36 37 37 36 36 36 37 37 36 36 35 35 35 34 33 33 32 31 29 29 29 29 28 29 31 31 32 32 32 32 31 30 30 30 30 29 29 30 30 28 27 27 27 28 29 29 29 28 27 26 26
24 23 24 24 24 24 23 22 21 20 18 16 15 14 13 11 10 10 11 11 12 13 15 18 19 20 21 22 25 26 28 31 33 35 36 37 37 36 35 34 35 36 36 35 35 35 35 34 33 32 31 30 29 29 29 29 29 30 31 31 31 32 32 31 30 30 30 30 30 29 29 30 29 28 27 28 28 29 29 29 29 29 28 25 24
26 25 25 24 25 25 25 25 25 24 22 21 19 18 17 16 15 14 13 13 13 13 14 16 18 20 21 21 22 23 25 29 32 34 36 36 36 35 35 33 31 32 35 35 34 34 34 34 32 31 30 29 29 29 29 29 29 30 30 31 31 31 30 29 29 29 30 30 29 29 28 28 28 27 26 27 28 28 28 29 30 30 28 25 24
27 27 26 25 25 25 26 26 27 26 26 25 23 22 20 19 19 19 17 16 15 15 15 16 18 20 22 24 24 23 23 25 29 33 36 36 33 31 32 33 31 31 34 36 35 34 34 34 33 32 31 29 28 28 28 28 28 29 30 31 31 31 29 29 30 30 30 30 29 29 28 27 26 25 25 26 27 27 27 28 29 29 27 25 26
29 29 29 28 27 26 26 26 28 28 28 28 27 26 24 23 22 22 22 20 19 18 18 18 18 20 21 24 25 26 25 25 25 28 31 33 32 29 29 32 33 33 35 36 36 35 35 34 33 33 32 30 29 28 28 27 27 27 28 30 30 29 28 29 30 30 30 29 29 28 27 26 25 25 24 25 26 27 27 28 28 27 26 26 27
30 31 32 32 32 30 28 27 28 29 30 30 30 29 28 27 26 26 25 25 23 22 21 20 20 20 21 22 24 25 26 27 26 25 26 28 30 30 29 30 31 32 33 35 37 37 36 35 34 33 33 32 30 29 28 27 26 26 27 28 28 27 27 28 29 29 28 28 27 27 27 26 25 25 25 25 27 28 28 28 27 27 27 27 29
30 31 33 35 36 35 32 30 30 31 32 32 32 31 31 30 30 29 29 28 28 26 25 24 23 22 22 22 23 23 23 25 25 25 25 24 25 28 30 29 29 29 30 32 36 38 38 37 36 35 33 32 31 30 29 28 27 27 27 28 28 27 26 27 27 26 26 26 26 26 26 25 25 25 25 26 28 28 28 27 27 27 28 29 31
29 31 32 34 36 37 36 34 32 32 33 34 34 34 34 33 33 33 33 32 31 30 29 28 27 26 24 24 23 22 22 23 23 24 25 25 23 23 26 28 31 32 31 29 32 36 38 38 38 37 35 34 34 33 31 29 28 28 28 28 28 27 26 27 27 26 25 26 26 26 26 26 25 25 26 27 28 28 27 27 26 27 29 31 33
28 30 31 33 35 36 37 36 34 34 35 35 36 37 37 35 34 35 35 35 35 34 33 32 31 31 29 27 26 24 23 23 23 22 23 24 24 22 23 26 31 34 34 31 31 35 38 39 39 38 37 37 38 37 34 32 30 30 30 29 29 28 28 29 29 28 27 29 29 28 28 27 26 26 26 27 27 26 26 26 27 28 29 30 31
28 29 31 33 34 35 37 37 36 35 35 37 37 37 38 37 37 36 37 38 38 37 35 34 34 34 34 32 30 28 25 23 23 23 22 22 24 24 24 26 30 33 35 34 34 36 39 40 40 39 38 38 38 38 36 34 33 32 31 31 32 31 30 31 32 31 31 32 32 31 31 30 29 28 28 27 26 26 26 27 28 28 28 28 29
29 30 31 32 34 35 36 38 38 37 37 38 39 38 38 38 38 38 38 39 40 40 38 37 36 36 37 37 35 33 30 27 26 26 24 22 22 24 25 26 29 32 35 36 37 39 39 39 39 38 37 37 37 35 34 34 34 33 32 33 34 34 34 35 36 36 34 33 33 33 33 32 31 31 30 30 29 29 29 30 31 31 30 30 30
31 31 31 32 33 34 35 37 38 39 39 39 40 40 39 39 39 38 38 39 40 41 40 40 38 36 37 38 39 38 36 32 29 29 28 25 23 24 25 26 27 30 34 37 38 40 40 38 37 36 35 35 35 34 34 35 34 33 32 32 32 34 36 37 39 38 36 34 34 34 33 32 32 32 32 32 32 31 31 32 33 34 33 33 33
33 33 33 33 33 34 35 36 37 38 40 41 41 41 41 40 40 39 39 39 40 40 41 41 40 38 37 38 40 41 40 37 33 31 31 30 27 25 26 26 25 27 31 35 37 39 40 39 38 36 33 33 33 32 32 34 34 33 32 31 31 35 37 37 38 38 37 36 35 33 32 32 33 33 34 34 33 33 33 34 34 35 35 35 35
35 35 35 35 35 35 35 36 36 37 39 41 42 42 42 42 42 41 41 40 40 40 40 41 41 40 38 38 39 42 43 42 39 35 33 33 32 30 28 27 27 26 28 31 35 37 38 39 40 38 35 33 33 33 33 33 33 34 33 32 33 36 37 37 37 38 38 36 34 32 30 29 30 32 33 34 34 35 35 36 36 37 37 38 38
Wind_Direction
188 189 192 192 193 193 192 192 191 190 189 187 183 181 181 183 184 185 187 187 186 181 178 178 173 173 176 176 175 174 174 174 171 163 155 152 142 133 132 128 128 135 141 151 158 166 172 168 157 151 149 151 154 155 151 148 144 139 139 136 134 134 133 131 124 118 115 115 113 108 101 87 75 74 76 77 80 88 102 113 117 123 126 128 131
192 191 193 194 195 196 196 196 195 194 192 189 187 185 185 186 187 188 188 189 188 184 181 179 177 174 176 179 178 178 180 182 182 178 173 172 159 138 132 127 124 125 132 145 158 167 174 171 162 156 156 155 154 155 154 151 149 148 149 142 137 139 139 137 132 126 123 120 115 108 102 86 74 74 75 76 83 99 114 125 130 128 130 135 136
195 194 194 195 197 197 198 199 198 197 194 193 192 191 190 189 189 190 190 190 189 187 184 182 180 176 177 182 182 181 183 187 189 187 184 185 174 147 136 131 125 122 125 135 151 165 174 166 156 155 155 151 151 155 156 156 156 157 157 150 144 140 139 141 140 136 131 124 117 110 104 93 81 77 76 82 92 111 124 129 136 135 135 140 139
199 198 197 197 198 199 200 200 200 200 198 197 196 195 195 193 191 190 191 192 191 189 187 185 184 181 181 185 185 185 185 189 193 192 191 192 185 167 151 142 131 122 122 128 144 161 169 158 150 152 149 144 145 150 155 158 159 160 158 155 154 147 142 144 146 142 138 133 127 120 111 100 90 87 90 98 105 119 128 131 139 140 140 145 143
202 202 202 202 202 201 201 202 203 204 202 201 200 198 198 196 194 192 191 193 193 193 191 188 187 185 186 188 187 188 189 190 192 192 193 195 196 192 172 153 135 124 125 130 137 150 158 154 149 147 141 136 138 143 149 153 154 155 153 153 156 153 145 145 149 149 147 144 139 135 128 116 108 105 107 113 122 133 135 137 146 147 145 148 145
201 204 207 208 207 206 204 204 206 206 206 206 205 203 201 199 198 196 192 192 194 197 196 193 191 188 188 189 187 189 191 191 190 190 194 195 199 203 187 160 139 128 132 139 137 139 148 155 153 142 136 135 135 138 142 145 148 148 147 148 150 150 148 148 150 150 152 153 146 144 147 140 128 123 125 129 137 147 143 137 146 148 147 149 147
196 200 208 211 212 212 210 208 208 208 209 209 208 206 203 201 201 200 196 193 195 198 199 198 195 191 189 188 186 188 190 192 194 193 195 196 198 205 198 169 143 133 141 148 145 144 149 157 155 146 142 140 138 138 141 144 145 145 147 146 143 147 150 150 149 149 152 155 149 145 147 140 126 127 139 141 144 151 146 140 148 150 149 151 151
196 197 203 208 212 215 215 214 213 212 211 212 211 208 206 204 203 202 199 196 196 198 200 201 199 195 193 191 188 188 189 192 197 197 197 199 198 201 201 179 149 136 144 150 148 152 156 157 155 150 149 146 143 145 147 148 148 149 150 146 142 146 149 148 148 148 151 150 146 143 140 135 127 128 143 149 148 151 149 147 154 155 154 156 157
200 197 199 202 206 212 216 217 218 217 215 216 215 212 209 207 205 203 201 199 197 197 199 202 203 200 198 195 191 191 194 195 198 200 199 199 199 199 198 185 156 142 148 149 146 152 157 158 155 150 149 149 150 150 148 149 150 152 154 149 147 148 147 148 149 152 153 146 143 144 137 134 129 129 142 150 151 153 154 155 158 159 160 162 162
202 202 203 201 197 203 210 214 217 219 218 219 219 216 212 208 208 206 204 203 201 199 199 201 204 205 202 198 194 193 196 199 200 202 202 200 200 198 194 187 165 152 155 155 149 152 158 162 158 152 149 148 149 150 148 148 151 155 156 154 152 152 153 156 158 159 154 143 142 142 134 132 130 133 144 151 153 157 161 164 165 165 166 167 167
203 206 209 204 194 194 200 205 211 216 218 219 220 220 215 211 210 209 207 206 204 203 201 201 203 206 205 200 198 197 199 202 200 201 204 202 201 197 193 189 175 165 164 163 157 155 159 163 162 157 152 149 148 149 150 150 152 154 154 153 154 157 160 164 168 163 151 144 143 139 132 134 139 145 151 151 153 159 165 169 170 170 170 171 172
198 205 209 206 198 196 198 199 204 210 215 217 220 221 219 215 212 211 211 209 207 206 204 203 203 204 205 202 200 200 201 203 200 201 203 201 200 197 195 193 185 177 170 166 164 160 159 164 167 164 157 153 150 151 152 150 149 147 148 150 154 159 161 162 165 159 149 146 143 139 135 139 152 161 160 158 159 164 169 173 175 173 172 176 177
190 193 201 203 200 199 199 200 203 207 212 216 218 222 221 219 216 214 213 211 210 210 208 206 204 203 204 203 202 202 204 204 201 200 202 201 200 197 196 196 192 186 178 172 172 166 162 167 172 169 163 159 154 155 157 153 149 147 148 150 153 158 159 156 156 154 151 148 145 146 143 144 159 168 166 168 171 172 173 177 180 176 175 181 183
194 187 190 196 200 201 199 200 203 206 210 213 216 220 222 221 220 217 215 212 210 211 211 209 206 204 204 204 203 203 204 205 202 201 202 203 201 199 198 198 195 192 187 180 177 174 171 173 175 172 169 168 162 162 164 161 158 154 153 154 153 156 159 157 154 151 147 146 148 152 151 152 164 173 173 174 174 171 173 179 182 178 179 186 189
195 192 192 194 197 203 202 199 202 204 206 210 214 219 222 222 222 220 217 214 211 210 211 211 208 205 205 205 204 204 204 205 203 202 203 204 204 203 200 200 198 196 194 188 181 180 180 178 177 173 171 172 170 171 174 172 167 160 157 158 154 154 157 158 155 150 148 148 152 158 160 161 167 174 177 177 177 176 178 183 182 181 185 189 194
187 190 198 197 193 198 201 196 195 197 200 206 212 217 221 222 223 223 221 217 214 212 212 213 212 208 206 206 206 205 205 206 205 203 204 207 208 206 202 201 200 199 199 195 187 186 188 186 184 178 172 172 174 180 185 184 180 169 160 160 159 155 154 155 153 150 150 150 151 159 165 167 173 180 182 182 184 184 186 189 186 185 188 189 195
185 188 197 198 194 196 203 203 197 194 196 201 206 211 215 219 222 223 222 219 216 214 213 213 214 213 209 207 208 207 206 206 206 204 206 209 210 208 206 204 203 203 203 199 193 192 195 195 192 187 181 178 177 185 192 195 193 182 171 169 169 163 157 158 156 153 155 155 156 161 167 171 179 188 191 190 191 189 190 192 189 192 195 195 199
182 185 190 196 195 196 203 209 206 202 202 202 202 203 204 208 215 219 222 222 220 218 217 214 213 215 213 210 209 208 206 206 206 206 207 210 211 211 210 208 206 207 207 204 199 197 199 203 203 197 192 187 186 190 197 202 203 196 186 183 184 181 175 171 167 165 167 167 168 172 175 177 181 188 195 200 201 196 193 193 191 197 204 203 207
178 181 183 188 191 195 202 206 204 205 205 202 202 202 199 200 205 211 215 218 218 217 219 219 216 215 216 213 212 210 208 207 207 208 210 211 213 214 214 212 209 209 209 207 206 203 202 206 210 208 202 196 195 198 202 207 211 209 202 196 196 198 198 193 186 182 183 184 182 181 183 185 186 191 198 207 212 207 200 199 200 204 207 209 213
180 181 182 180 178 184 196 197 194 198 200 199 200 200 200 201 203 207 209 212 213 210 210 215 217 218 218 215 214 212 211 210 208 208 211 212 214 216 218 217 215 212 210 210 210 209 208 209 212 214 211 206 203 204 209 213 215 217 214 210 209 211 211 210 207 202 199 201 200 195 193 192 193 198 203 210 217 215 210 208 208 210 210 212 217
182 183 186 184 179 182 191 192 190 193 194 196 198 197 201 205 206 208 209 211 213 209 206 209 212 215 218 217 216 215 214 214 211 209 211 213 215 217 219 220 219 217 213 212 213 212 213 214 215 217 218 217 213 211 214 217 219 222 223 220 220 222 224 223 223 222 218 217 217 213 210 205 202 207 211 216 221 223 221 218 215 215 216 217 220
181 185 189 190 190 188 188 192 196 198 197 196 197 197 202 208 209 209 210 213 216 214 211 212 210 211 213 215 217 217 215 215 214 213 212 214 216 218 219 221 221 220 218 216 216 215 214 216 217 218 220 223 222 220 220 222 224 226 227 227 226 228 231 231 232 233 233 232 232 231 229 225 221 219 220 223 226 229 230 227 223 221 222 224 225
178 187 192 195 199 194 187 192 199 201 198 196 198 201 203 207 207 206 207 213 219 218 217 217 215 212 212 212 214 215 215 215 215 215 216 216 217 218 221 222 222 222 221 220 220 219 218 217 219 220 221 224 226 226 225 226 227 230 231 231 231 231 233 234 235 237 239 240 241 242 244 241 236 234 235 233 233 234 235 234 231 228 229 231 229
179 184 192 197 202 199 192 195 200 199 196 196 201 205 205 204 203 204 206 210 217 218 217 217 215 214 215 213 213 214 214 214 215 216 217 218 219 221 222 223 223 224 224 223 223 224 223 222 223 223 223 224 226 228 228 227 228 231 233 233 234 235 236 237 238 239 242 243 243 244 247 247 245 244 246 246 245 244 244 244 242 240 238 237 235
187 184 190 194 200 202 199 199 202 202 199 197 200 203 205 205 205 207 208 207 212 217 217 215 212 212 215 214 214 215 215 215 215 216 217 218 220 223 223 224 225 227 227 226 226 227 228 228 228 229 228 226 226 227 228 227 227 229 231 233 235 236 238 241 242 244 246 248 248 249 249 250 250 250 250 251 251 252 253 253 252 251 249 247 245
213 194 193 193 196 200 202 202 204 206 204 201 200 199 202 207 209 213 213 209 211 216 217 214 210 210 213 214 214 216 217 217 217 217 218 219 221 224 225 225 227 229 229 230 230 230 231 231 231 232 232 230 228 227 227 226 227 228 229 232 234 235 238 241 243 246 249 250 252 253 255 256 255 254 253 253 254 255 256 257 258 258 257 255 254
288 249 216 204 199 198 200 203 205 208 208 206 203 197 198 204 207 212 216 214 213 214 213 213 211 209 211 213 214 216 218 219 220 220 220 220 222 225 225 225 227 230 231 232 233 233 233 232 233 234 234 233 231 229 228 227 228 229 230 233 235 236 238 239 242 245 247 249 251 252 255 258 258 258 258 257 258 257 257 258 259 260 261 260 260
303 295 272 236 215 202 201 202 202 205 206 206 203 196 194 198 202 207 212 216 219 218 215 214 214 212 213 214 216 217 218 219 220 221 221 221 222 225 225 225 226 229 232 233 235 236 235 233 233 233 234 235 234 233 231 230 229 231 232 233 236 238 239 240 242 244 246 248 249 251 254 256 259 259 259 260 260 260 260 261 261 262 263 263 263
331 312 313 281 238 211 208 206 200 201 204 204 203 199 195 196 199 201 204 210 216 219 218 219 218 216 213 214 217 218 219 220 221 222 222 223 223 225 226 227 227 227 230 233 234 236 236 235 234 234 234 235 236 236 235 233 232 233 234 235 238 239 240 241 241 242 245 247 248 250 252 255 257 258 259 260 262 262 263 263 264 264 265 265 264
136 161 261 275 263 225 211 209 208 210 209 205 203 202 201 201 198 196 198 200 205 211 215 216 217 216 213 214 217 218 219 222 222 222 222 224 225 226 227 228 228 228 229 231 234 235 237 236 236 236 237 237 237 237 238 237 236 237 238 239 241 242 243 244 243 242 243 245 247 249 251 254 256 257 258 260 262 263 264 264 265 266 266 267 267
157 157 162 172 192 204 199 200 207 212 215 215 210 206 206 205 200 199 199 198 199 204 208 210 210 211 212 214 216 216 218 223 225 224 224 224 225 227 228 229 229 229 229 230 233 235 236 237 237 237 238 239 240 240 240 240 240 241 242 243 245 245 245 246 246 245 244 245 246 248 250 253 255 257 259 261 262 263 265 266 267 267 267 268 268
174 174 169 171 177 187 197 206 211 209 213 227 230 222 215 210 205 203 202 201 200 201 204 207 207 206 208 212 216 216 217 222 226 227 227 227 227 228 229 230 231 232 232 232 233 235 236 237 238 239 239 240 242 244 244 243 242 242 243 245 247 248 248 248 248 248 248 247 247 248 250 252 255 257 259 261 263 264 266 268 269 269 269 269 269
179 185 179 179 181 184 194 204 214 217 218 226 234 233 227 221 216 211 205 203 202 201 203 206 208 208 208 209 212 215 218 221 224 227 229 230 230 230 230 231 231 232 234 234 234 235 236 237 239 241 242 243 244 245 246 246 245 245 245 247 249 250 250 251 251 251 251 251 250 251 252 254 256 259 259 260 263 265 267 269 270 270 270 271 271
181 185 188 189 188 194 206 207 212 214 212 217 226 229 226 223 225 225 218 211 207 204 204 206 209 211 213 211 210 212 216 219 222 225 229 232 234 234 234 233 233 233 234 235 236 237 237 238 240 242 244 245 246 246 247 247 247 247 248 249 251 252 252 252 253 253 253 254 254 254 255 257 259 261 261 261 262 265 266 267 268 268 269 270 270
200 202 208 212 210 210 214 226 244 242 230 231 235 233 227 223 226 230 229 224 218 212 208 209 210 211 213 213 211 211 214 217 220 223 226 230 233 235 237 237 237 237 236 235 235 236 238 239 240 243 245 246 248 249 249 249 248 248 249 250 252 253 254 254 254 254 255 255 256 257 258 260 261 262 264 263 263 264 265 266 266 266 267 268 268
217 221 225 229 233 235 233 233 245 260 265 265 264 261 256 246 238 237 237 237 233 228 221 216 213 213 213 212 211 212 213 216 219 223 225 227 229 233 236 238 239 239 238 237 236 236 238 239 240 242 244 246 248 249 250 250 249 248 249 250 252 253 254 256 256 257 257 257 258 258 260 261 263 263 264 265 264 264 265 266 266 266 266 267 267
224 229 234 237 239 242 244 243 244 246 249 250 253 259 263 263 257 249 246 245 243 241 239 232 224 221 219 215 212 212 213 214 217 221 224 225 227 228 231 235 238 240 239 239 238 237 238 239 240 241 243 245 247 248 249 249 248 247 248 249 251 253 254 256 257 257 258 258 258 258 259 260 262 263 264 264 264 264 265 265 266 266 266 266 267
231 232 234 237 240 242 244 246 245 243 241 239 240 244 247 252 258 256 251 250 248 247 247 243 236 229 225 221 220 219 217 216 217 219 222 223 224 224 224 226 232 236 239 240 240 240 240 241 241 242 242 243 244 245 245 245 245 245 246 247 249 251 252 254 254 255 256 257 257 257 257 258 260 262 263 263 263 263 264 265 267 267 267 266 266
246 242 239 238 239 241 243 246 246 244 242 239 238 239 239 240 247 254 255 252 251 251 250 248 246 241 234 229 227 226 224 222 221 221 223 225 226 225 223 223 225 228 233 237 240 242 243 244 244 244 243 242 242 243 243 243 242 242 243 245 247 248 250 252 253 254 255 256 256 256 255 257 259 261 261 262 262 263 263 265 267 268 267 266 267
260 257 253 249 246 244 243 245 246 247 247 244 240 238 238 238 239 243 248 251 250 250 251 251 254 255 253 248 239 230 227 226 226 227 229 231 232 230 229 230 231 230 231 233 235 240 245 247 247 246 245 242 241 242 243 243 242 242 243 244 246 248 250 252 253 255 256 256 257 257 256 256 258 260 260 261 262 262 263 264 265 266 267 269 270
265 265 263 260 255 252 250 249 249 249 248 248 245 241 238 238 238 238 240 244 247 249 250 249 251 254 258 261 257 248 238 231 229 232 236 239 241 240 237 237 238 237 236 236 236 238 242 245 247 248 247 244 241 241 243 243 243 243 244 245 246 248 250 252 252 253 255 257 258 259 260 259 259 260 260 260 260 260 260 261 262 265 268 270 270
270 272 271 268 263 259 256 254 254 253 250 249 249 247 243 240 238 239 240 242 243 247 249 250 250 250 253 258 262 262 258 251 245 244 244 244 245 246 244 242 240 239 238 237 239 242 243 242 244 246 247 247 244 241 242 242 242 243 244 246 248 249 250 251 252 253 255 258 260 261 262 263 262 260 259 258 259 259 258 258 261 265 267 269 269
269 271 272 272 271 267 263 260 258 257 255 253 251 250 249 245 241 240 242 243 244 244 246 249 251 252 251 253 256 260 262 262 261 259 257 252 248 244 243 242 243 246 245 240 239 243 244 243 244 245 246 246 246 243 242 241 241 243 245 247 249 249 249 250 251 253 256 258 261 262 262 262 260 258 256 256 256 258 258 258 260 263 265 266 267
266 267 269 270 271 270 269 266 263 262 261 259 256 253 251 250 248 246 244 244 245 245 245 246 248 251 253 252 252 254 256 259 262 263 263 261 256 248 244 241 240 245 248 245 241 242 244 245 246 246 247 247 246 244 242 241 241 241 243 246 248 248 248 248 250 253 256 258 260 261 260 258 256 254 253 252 253 256 258 259 260 261 263 264 264
265 266 267 268 270 271 270 268 266 265 264 263 262 260 257 254 253 252 250 248 247 246 245 245 245 247 250 251 252 252 251 252 256 260 261 261 258 252 245 242 240 241 245 248 245 243 244 246 246 246 247 247 246 244 242 241 241 242 243 244 246 245 245 246 248 251 253 255 256 257 257 256 254 252 251 251 253 256 259 260 260 260 259 261 263
268 267 267 268 269 270 272 271 268 266 265 264 264 264 263 260 257 256 255 254 252 249 247 245 244 245 247 248 249 250 251 250 250 252 254 255 255 250 242 237 236 238 240 245 245 243 244 247 247 245 246 247 247 245 242 240 240 241 242 244 245 244 244 246 248 248 248 250 251 251 253 254 253 252 252 253 255 257 257 258 257 256 257 259 263
275 273 271 270 269 270 271 272 271 269 267 265 265 264 265 264 262 259 258 258 257 255 252 248 245 244 245 246 247 247 249 251 249 247 246 246 248 248 241 234 232 232 233 236 239 240 241 243 243 242 242 245 247 247 244 243 242 243 244 247 248 247 247 248 249 249 248 248 248 248 249 250 250 251 253 255 256 257 257 257 258 259 261 265 268
277 276 275 274 273 272 271 271 271 270 268 267 266 265 264 264 263 262 260 259 259 259 257 254 249 244 243 244 245 245 246 247 249 247 243 240 241 242 240 236 234 232 230 232 235 237 238 239 240 241 241 241 242 243 244 245 245 245 245 247 248 249 250 251 251 251 249 249 249 249 249 249 249 251 252 255 257 258 259 261 262 264 266 268 269
278 277 277 276 275 274 272 271 270 269 268 267 266 266 264 262 262 261 260 259 259 258 258 257 253 248 243 241 242 244 243 244 247 247 243 239 237 237 237 236 235 234 233 232 234 237 240 242 244 247 248 244 239 238 240 243 243 242 241 241 243 245 247 248 250 250 248 246 247 248 248 249 250 251 252 253 255 258 260 262 264 265 266 268 269
279 278 277 277 276 275 273 272 270 269 268 266 265 265 264 262 261 260 259 259 259 258 257 257 255 251 245 240 239 241 241 242 244 245 245 242 237 234 235 235 235 236 235 234 235 237 241 246 249 251 251 248 244 241 242 245 247 245 241 238 239 241 241 241 244 247 245 243 245 247 246 246 247 249 251 253 256 259 262 264 266 267 267 267 268
281 281 280 278 278 276 274 273 271 269 268 266 264 263 262 261 260 259 257 257 257 256 256 256 254 252 248 243 238 237 238 240 241 242 244 244 239 235 235 235 234 235 237 237 236 237 240 245 249 248 247 248 249 247 245 247 249 248 245 241 239 240 239 236 236 241 245 247 248 248 247 246 247 249 251 253 256 259 262 264 267 270 270 269 268
Height
3204 3206 3208 3210 3212 3213 3215 3217 3218 3219 3221 3222 3223 3225 3226 3227 3228 3229 3230 3231 3233 3234 3236 3237 3238 3240 3241 3242 3243 3244 3245 3246 3247 3247 3248 3248 3249 3249 3249 3250 3250 3251 3251 3252 3252 3252 3252 3252 3253 3253 3254 3254 3254 3255 3255 3255 3256 3256 3256 3257 3257 3258 3258 3259 3259 3260 3260 3260 3260 3261 3261 3261 3261 3261 3261 3261 3261 3261 3261 3261 3261 3261 3262 3262 3263
3203 3205 3207 3209 3211 3212 3214 3216 3217 3219 3220 3222 3223 3224 3225 3227 3228 3229 3230 3231 3233 3234 3236 3237 3238 3240 3241 3242 3243 3244 3245 3246 3247 3248 3248 3249 3249 3249 3250 3250 3250 3251 3252 3252 3252 3252 3252 3253 3253 3253 3254 3254 3254 3255 3255 3256 3256 3256 3257 3257 3257 3258 3259 3259 3259 3260 3260 3260 3261 3261 3261 3261 3261 3261 3261 3261 3261 3262 3262 3262 3262 3262 3263 3263 3264
3202 3204 3206 3208 3210 3211 3213 3215 3216 3218 3220 3222 3223 3224 3225 3226 3227 3229 3230 3231 3232 3234 3235 3237 3238 3239 3241 3242 3243 3244 3245 3246 3247 3248 3248 3249 3249 3249 3250 3250 3251 3251 3252 3252 3252 3253 3253 3253 3253 3253 3254 3254 3254 3255 3255 3256 3256 3256 3257 3257 3257 3258 3259 3259 3260 3260 3260 3260 3261 3261 3261 3262 3262 3262 3262 3262 3262 3263 3263 3263 3263 3263 3264 3265 3265
3201 3203 3205 3207 3209 3210 3212 3214 3216 3218 3219 3221 3222 3224 3225 3226 3227 3228 3230 3231 3232 3234 3235 3236 3238 3239 3240 3241 3243 3244 3245 3246 3247 3247 3248 3249 3250 3250 3250 3250 3251 3251 3252 3252 3253 3253 3253 3253 3254 3254 3254 3254 3254 3255 3255 3256 3256 3257 3257 3257 3258 3258 3259 3259 3260 3260 3260 3260 3261 3261 3262 3262 3262 3262 3262 3262 3263 3263 3264 3264 3264 3264 3265 3266 3266
3201 3203 3205 3206 3208 3210 3212 3214 3215 3217 3219 3220 3222 3223 3225 3226 3227 3228 3229 3231 3232 3233 3234 3236 3237 3238 3240 3241 3242 3243 3244 3245 3247 3247 3248 3249 3250 3250 3250 3250 3251 3251 3252 3252 3253 3253 3254 3254 3254 3254 3254 3254 3254 3255 3255 3256 3256 3257 3257 3257 3258 3258 3258 3259 3260 3260 3261 3261 3261 3262 3262 3262 3262 3263 3263 3263 3263 3264 3264 3265 3265 3265 3266 3267 3267
3200 3202 3204 3206 3207 3209 3211 3213 3215 3216 3218 3220 3222 3223 3224 3226 3227 3228 3229 3230 3232 3233 3234 3235 3236 3238 3240 3241 3242 3243 3244 3245 3246 3247 3248 3249 3249 3250 3250 3251 3251 3251 3252 3252 3253 3253 3254 3254 3254 3254 3254 3254 3255 3255 3256 3256 3257 3257 3257 3258 3258 3258 3259 3259 3260 3260 3261 3262 3262 3262 3262 3262 3263 3263 3263 3264 3264 3264 3265 3265 3266 3266 3267 3267 3268
3199 3201 3203 3204 3207 3208 3210 3212 3214 3216 3218 3219 3221 3223 3224 3225 3226 3227 3229 3230 3231 3232 3234 3235 3236 3238 3239 3240 3242 3243 3244 3245 3246 3247 3248 3248 3249 3250 3250 3251 3251 3251 3252 3252 3253 3253 3254 3254 3255 3255 3255 3255 3255 3255 3256 3256 3257 3257 3257 3258 3258 3258 3259 3259 3260 3260 3261 3262 3262 3262 3262 3263 3263 3263 3263 3264 3264 3265 3265 3266 3267 3267 3267 3268 3269
3197 3199 3201 3203 3205 3207 3209 3211 3213 3215 3217 3219 3220 3222 3223 3224 3226 3227 3228 3229 3230 3232 3233 3234 3236 3237 3239 3240 3241 3242 3243 3244 3245 3246 3247 3248 3249 3250 3250 3251 3251 3251 3252 3252 3253 3253 3254 3255 3255 3255 3255 3256 3256 3256 3256 3256 3257 3257 3258 3258 3258 3259 3259 3259 3260 3260 3261 3262 3262 3262 3262 3263 3263 3263 3264 3264 3265 3266 3266 3266 3267 3267 3268 3269 3269
3195 3197 3199 3201 3203 3205 3207 3210 3212 3214 3216 3217 3219 3221 3222 3224 3225 3226 3227 3228 3229 3231 3232 3234 3235 3237 3238 3239 3240 3241 3242 3243 3244 3246 3247 3248 3249 3249 3250 3251 3251 3251 3252 3252 3253 3253 3254 3255 3255 3256 3256 3256 3256 3256 3256 3256 3257 3257 3258 3258 3258 3259 3259 3260 3260 3260 3261 3261 3262 3262 3263 3263 3263 3264 3264 3265 3265 3266 3266 3267 3267 3268 3268 3269 3270
3194 3196 3197 3199 3201 3203 3206 3208 3210 3212 3214 3216 3218 3220 3221 3223 3224 3225 3226 3228 3229 3230 3231 3233 3234 3236 3237 3238 3239 3240 3242 3243 3244 3245 3246 3247 3248 3249 3250 3250 3251 3251 3252 3252 3253 3253 3254 3254 3255 3256 3256 3256 3256 3256 3256 3257 3257 3257 3258 3258 3258 3259 3259 3260 3260 3260 3261 3261 3262 3263 3263 3263 3263 3264 3264 3265 3265 3266 3267 3267 3268 3268 3269 3270 3270
3194 3196 3197 3199 3200 3201 3204 3206 3208 3210 3212 3214 3216 3218 3220 3221 3223 3224 3226 3227 3228 3229 3231 3232 3233 3235 3236 3238 3239 3240 3241 3242 3243 3244 3246 3247 3248 3249 3250 3250 3251 3251 3252 3252 3253 3253 3253 3254 3255 3255 3256 3256 3256 3257 3257 3257 3257 3257 3258 3258 3258 3259 3259 3260 3260 3261 3261 3261 3262 3263 3263 3263 3263 3264 3265 3265 3266 3266 3267 3267 3268 3269 3270 3270 3271
3194 3195 3197 3198 3200 3200 3202 3204 3206 3208 3210 3212 3214 3216 3218 3220 3222 3223 3225 3226 3227 3229 3230 3231 3233 3234 3236 3237 3238 3239 3240 3241 3242 3244 3245 3247 3248 3249 3249 3250 3251 3251 3252 3253 3253 3253 3253 3254 3255 3255 3256 3256 3257 3257 3257 3257 3257 3257 3258 3258 3258 3259 3260 3260 3260 3261 3261 3262 3262 3263 3263 3264 3264 3264 3265 3265 3266 3267 3267 3268 3268 3269 3270 3271 3272
3193 3194 3195 3197 3199 3200 3201 3203 3205 3206 3208 3210 3213 3214 3216 3218 3220 3222 3224 3225 3227 3228 3229 3230 3232 3233 3235 3236 3237 3238 3239 3240 3242 3243 3244 3246 3247 3248 3249 3250 3251 3251 3252 3252 3253 3253 3253 3254 3254 3255 3255 3256 3256 3257 3257 3257 3257 3258 3258 3258 3259 3259 3260 3260 3260 3261 3261 3262 3262 3263 3263 3264 3265 3265 3265 3266 3266 3267 3268 3268 3269 3270 3271 3271 3272
3191 3193 3194 3195 3197 3199 3200 3202 3203 3205 3207 3209 3211 3213 3214 3217 3219 3221 3223 3224 3226 3227 3228 3229 3231 3232 3234 3235 3236 3237 3238 3239 3241 3242 3243 3245 3246 3247 3248 3249 3250 3251 3252 3252 3252 3253 3253 3254 3254 3255 3255 3256 3256 3257 3257 3258 3258 3258 3258 3259 3259 3259 3260 3260 3261 3261 3262 3262 3262 3263 3263 3264 3265 3266 3266 3266 3267 3267 3268 3268 3269 3270 3271 3272 3272
3188 3191 3193 3194 3196 3197 3199 3201 3203 3204 3206 3208 3209 3211 3213 3215 3217 3219 3221 3223 3224 3226 3227 3228 3230 3232 3233 3234 3235 3237 3238 3238 3240 3241 3242 3244 3245 3246 3248 3249 3249 3250 3251 3252 3252 3252 3253 3253 3254 3255 3255 3255 3256 3257 3257 3258 3258 3258 3258 3259 3259 3260 3260 3261 3261 3261 3262 3262 3263 3263 3264 3264 3265 3266 3266 3267 3267 3267 3268 3268 3269 3270 3271 3272 3272
3184 3187 3190 3192 3193 3195 3197 3198 3201 3203 3204 3206 3208 3210 3212 3214 3216 3218 3220 3221 3223 3225 3226 3228 3229 3230 3232 3233 3234 3236 3237 3238 3239 3240 3241 3243 3244 3245 3247 3248 3249 3249 3250 3251 3252 3252 3253 3253 3254 3254 3255 3255 3256 3256 3257 3258 3258 3258 3259 3259 3259 3259 3260 3261 3261 3261 3262 3262 3263 3263 3264 3264 3265 3266 3266 3267 3267 3267 3268 3268 3269 3269 3270 3271 3272
3182 3184 3187 3189 3190 3192 3194 3195 3198 3200 3202 3204 3206 3208 3211 3213 3215 3216 3218 3220 3221 3223 3225 3226 3228 3229 3231 3232 3233 3235 3236 3237 3238 3239 3240 3241 3243 3244 3245 3246 3248 3249 3249 3250 3251 3252 3252 3253 3253 3254 3254 3255 3255 3256 3257 3257 3258 3258 3259 3259 3259 3259 3260 3261 3261 3261 3262 3262 3263 3264 3264 3264 3265 3265 3266 3267 3267 3267 3268 3268 3269 3269 3270 3270 3272
3180 3182 3184 3186 3187 3189 3192 3194 3195 3198 3200 3203 3205 3206 3208 3211 3213 3215 3216 3218 3220 3222 3223 3224 3226 3228 3229 3231 3232 3234 3235 3236 3237 3238 3239 3240 3241 3243 3244 3246 3247 3248 3248 3249 3250 3251 3252 3252 3253 3253 3254 3254 3255 3256 3256 3257 3258 3258 3259 3259 3259 3259 3260 3260 3261 3261 3262 3262 3263 3263 3264 3264 3265 3265 3266 3267 3267 3267 3268 3268 3269 3269 3270 3270 3271
3178 3180 3182 3184 3186 3188 3190 3192 3193 3196 3198 3200 3202 3205 3206 3208 3210 3212 3214 3216 3217 3219 3221 3223 3225 3226 3228 3229 3231 3232 3233 3234 3235 3236 3237 3239 3240 3242 3243 3245 3246 3246 3247 3248 3249 3250 3251 3252 3252 3253 3253 3254 3254 3255 3256 3257 3257 3258 3258 3258 3259 3259 3259 3260 3261 3261 3262 3262 3263 3263 3264 3264 3265 3265 3266 3266 3267 3267 3267 3268 3269 3269 3269 3270 3270
3177 3179 3180 3182 3184 3187 3189 3190 3192 3194 3196 3198 3200 3203 3205 3206 3208 3209 3210 3212 3213 3215 3218 3220 3222 3224 3226 3228 3229 3231 3232 3233 3234 3235 3237 3238 3239 3240 3242 3243 3244 3245 3246 3247 3248 3249 3250 3251 3252 3252 3253 3253 3254 3254 3255 3256 3257 3257 3258 3258 3258 3259 3259 3260 3260 3261 3261 3262 3262 3263 3263 3264 3264 3265 3265 3266 3267 3267 3267 3268 3268 3269 3269 3269 3270
3176 3177 3178 3180 3182 3184 3186 3188 3190 3192 3194 3196 3198 3200 3202 3204 3205 3207 3208 3211 3212 3213 3215 3217 3219 3222 3224 3226 3227 3229 3230 3232 3233 3234 3235 3236 3237 3239 3240 3241 3243 3244 3245 3246 3247 3248 3249 3250 3251 3251 3252 3253 3253 3254 3254 3255 3256 3256 3257 3257 3258 3258 3258 3259 3259 3260 3261 3261 3262 3262 3263 3263 3264 3265 3265 3266 3266 3267 3267 3267 3268 3268 3268 3269 3269
3175 3176 3177 3178 3180 3182 3185 3187 3188 3190 3191 3194 3196 3198 3200 3201 3204 3206 3208 3209 3211 3212 3214 3215 3216 3219 3221 3223 3225 3227 3228 3230 3231 3233 3234 3235 3236 3237 3238 3239 3241 3242 3244 3245 3245 3246 3247 3248 3249 3250 3251 3252 3252 3253 3254 3254 3255 3255 3256 3256 3257 3257 3258 3258 3259 3259 3260 3260 3261 3261 3262 3263 3263 3264 3265 3265 3266 3266 3266 3267 3267 3267 3268 3268 3269
3173 3174 3176 3177 3178 3181 3183 3185 3186 3188 3189 3192 3194 3195 3197 3200 3202 3205 3207 3208 3210 3211 3213 3214 3215 3217 3219 3220 3222 3224 3226 3228 3229 3231 3232 3233 3235 3236 3236 3238 3239 3241 3242 3243 3244 3245 3246 3247 3248 3249 3250 3251 3251 3252 3252 3253 3254 3254 3255 3255 3256 3257 3257 3257 3258 3258 3259 3260 3260 3261 3261 3262 3262 3263 3264 3264 3265 3265 3266 3266 3266 3267 3267 3267 3268
3172 3173 3174 3175 3177 3178 3181 3182 3184 3185 3187 3189 3191 3193 3196 3198 3200 3202 3204 3206 3207 3208 3210 3212 3214 3215 3217 3218 3220 3222 3224 3225 3227 3229 3230 3232 3233 3234 3235 3236 3237 3238 3240 3241 3242 3243 3244 3245 3246 3247 3248 3249 3250 3250 3251 3252 3253 3253 3254 3254 3255 3255 3256 3257 3257 3257 3258 3259 3259 3260 3260 3261 3261 3262 3262 3263 3263 3264 3265 3265 3265 3266 3266 3266 3266
3171 3172 3173 3174 3175 3177 3178 3180 3182 3184 3185 3186 3188 3190 3193 3196 3197 3199 3200 3202 3204 3206 3207 3210 3212 3213 3214 3216 3218 3220 3222 3223 3225 3227 3228 3230 3231 3232 3233 3234 3235 3236 3238 3239 3240 3241 3243 3244 3245 3246 3247 3247 3248 3249 3250 3250 3251 3252 3252 3253 3254 3254 3255 3255 3256 3256 3257 3258 3258 3259 3259 3260 3260 3261 3261 3261 3262 3262 3263 3264 3264 3264 3265 3265 3265
3169 3170 3172 3173 3174 3175 3177 3178 3180 3182 3183 3185 3186 3188 3190 3192 3195 3197 3198 3199 3201 3203 3205 3207 3209 3211 3212 3214 3216 3217 3219 3221 3223 3225 3226 3227 3229 3230 3231 3232 3233 3234 3236 3237 3238 3239 3241 3242 3243 3244 3245 3245 3246 3247 3248 3249 3249 3250 3251 3252 3252 3253 3254 3254 3255 3255 3256 3256 3257 3257 3258 3258 3259 3259 3260 3260 3260 3261 3261 3262 3262 3263 3263 3263 3264
3167 3169 3170 3171 3173 3174 3175 3177 3178 3180 3181 3183 3185 3186 3187 3189 3192 3195 3196 3198 3199 3200 3202 3204 3206 3208 3209 3211 3213 3215 3217 3219 3221 3222 3224 3225 3226 3227 3229 3230 3231 3232 3233 3234 3235 3237 3238 3240 3241 3242 3243 3243 3244 3244 3245 3246 3247 3248 3249 3250 3251 3252 3252 3253 3254 3254 3254 3255 3256 3256 3257 3257 3257 3258 3258 3259 3259 3259 3260 3260 3261 3261 3261 3262 3262
3166 3167 3168 3170 3171 3173 3174 3175 3177 3178 3180 3181 3183 3184 3186 3187 3188 3191 3193 3196 3197 3199 3200 3202 3204 3205 3207 3209 3211 3213 3214 3216 3217 3219 3221 3222 3224 3225 3226 3228 3229 3230 3231 3232 3233 3234 3236 3237 3238 3239 3240 3241 3242 3242 3243 3244 3245 3246 3247 3248 3249 3250 3250 3251 3252 3252 3253 3253 3254 3255 3255 3255 3256 3256 3257 3257 3257 3257 3258 3258 3259 3259 3259 3260 3260
3167 3167 3168 3169 3170 3172 3173 3174 3175 3177 3178 3179 3181 3182 3184 3185 3186 3187 3189 3192 3195 3197 3198 3200 3202 3204 3205 3207 3209 3210 3212 3213 3215 3216 3218 3219 3221 3222 3223 3225 3226 3227 3228 3229 3230 3231 3233 3234 3235 3236 3237 3238 3239 3240 3240 3241 3242 3243 3244 3246 3247 3247 3248 3249 3249 3250 3250 3251 3252 3253 3253 3253 3254 3254 3255 3255 3255 3255 3256 3256 3257 3257 3257 3257 3258
3167 3168 3169 3169 3170 3171 3172 3173 3174 3175 3176 3177 3178 3180 3181 3183 3184 3185 3186 3188 3191 3194 3196 3198 3200 3202 3203 3205 3206 3208 3210 3211 3212 3213 3215 3216 3217 3219 3220 3221 3223 3224 3225 3226 3227 3228 3230 3231 3232 3233 3234 3235 3235 3237 3238 3239 3241 3241 3242 3243 3244 3244 3245 3246 3247 3247 3248 3248 3249 3250 3250 3251 3251 3251 3252 3253 3253 3253 3254 3254 3254 3254 3255 3255 3255
3167 3168 3168 3169 3170 3171 3172 3172 3173 3174 3175 3176 3176 3177 3178 3180 3181 3183 3184 3186 3188 3190 3193 3195 3197 3199 3200 3202 3203 3205 3207 3208 3209 3211 3212 3213 3214 3215 3216 3218 3219 3221 3222 3223 3224 3225 3226 3228 3229 3230 3231 3231 3232 3233 3235 3237 3238 3239 3240 3240 3241 3242 3242 3243 3244 3244 3245 3246 3246 3247 3248 3248 3248 3249 3249 3250 3250 3250 3251 3252 3252 3252 3252 3252 3252
3167 3167 3168 3169 3170 3170 3171 3172 3173 3173 3174 3174 3175 3176 3176 3177 3179 3180 3182 3183 3185 3187 3189 3191 3193 3195 3197 3198 3200 3202 3203 3204 3206 3208 3209 3210 3210 3211 3212 3214 3215 3217 3218 3219 3220 3222 3223 3224 3225 3226 3227 3228 3229 3230 3232 3234 3235 3236 3237 3238 3238 3239 3239 3240 3241 3241 3242 3243 3244 3244 3245 3245 3245 3246 3247 3247 3247 3248 3248 3249 3249 3249 3249 3249 3249
3166 3167 3168 3168 3169 3170 3171 3171 3172 3172 3173 3173 3174 3174 3175 3175 3176 3178 3179 3181 3182 3184 3185 3187 3189 3192 3194 3194 3196 3198 3199 3201 3203 3204 3205 3206 3207 3208 3209 3210 3212 3213 3214 3215 3217 3218 3220 3221 3222 3223 3224 3225 3226 3227 3229 3230 3232 3233 3234 3235 3235 3236 3236 3237 3238 3238 3239 3240 3241 3241 3242 3242 3242 3243 3244 3244 3244 3245 3245 3245 3245 3245 3245 3246 3246
3165 3166 3167 3168 3169 3169 3170 3170 3171 3171 3172 3172 3173 3173 3174 3174 3175 3176 3177 3178 3180 3181 3182 3183 3186 3190 3191 3190 3191 3193 3195 3197 3199 3200 3201 3202 3204 3205 3206 3207 3208 3209 3210 3211 3213 3215 3216 3217 3218 3219 3221 3222 3223 3224 3225 3227 3228 3230 3231 3231 3232 3232 3233 3234 3234 3235 3236 3237 3237 3238 3239 3239 3240 3240 3241 3241 3242 3242 3242 3242 3242 3242 3242 3242 3243
3164 3165 3166 3167 3167 3168 3169 3170 3170 3170 3171 3171 3172 3172 3173 3173 3173 3174 3175 3176 3177 3178 3180 3181 3183 3185 3187 3188 3188 3189 3191 3193 3194 3196 3197 3198 3200 3201 3203 3204 3204 3205 3206 3208 3210 3211 3212 3214 3215 3216 3217 3218 3219 3221 3222 3223 3225 3226 3227 3228 3228 3228 3229 3230 3231 3231 3232 3233 3234 3235 3235 3236 3236 3237 3238 3238 3239 3239 3239 3239 3238 3238 3239 3239 3239
3163 3163 3164 3165 3166 3167 3168 3169 3169 3170 3170 3170 3171 3171 3172 3172 3172 3173 3174 3174 3175 3176 3177 3178 3179 3181 3183 3184 3186 3187 3188 3189 3190 3191 3193 3194 3196 3197 3199 3200 3201 3202 3203 3204 3206 3207 3208 3210 3211 3212 3213 3214 3216 3218 3219 3220 3222 3223 3224 3224 3224 3224 3225 3226 3227 3228 3229 3230 3230 3231 3232 3232 3233 3234 3235 3235 3236 3236 3236 3235 3235 3235 3235 3235 3235
3161 3162 3162 3163 3164 3165 3166 3167 3168 3169 3169 3170 3170 3171 3171 3171 3171 3172 3173 3173 3174 3174 3175 3175 3176 3178 3179 3181 3182 3183 3184 3185 3186 3186 3188 3190 3191 3192 3194 3195 3196 3197 3199 3201 3202 3204 3205 3206 3208 3208 3209 3211 3213 3214 3215 3217 3218 3219 3219 3220 3220 3221 3221 3222 3223 3224 3225 3225 3226 3227 3228 3229 3229 3230 3231 3232 3233 3233 3232 3232 3231 3232 3232 3232 3232
3158 3159 3160 3161 3162 3163 3164 3165 3166 3167 3168 3169 3169 3170 3170 3170 3170 3170 3171 3171 3172 3173 3173 3173 3173 3174 3176 3177 3178 3179 3180 3181 3182 3183 3184 3185 3185 3186 3187 3189 3192 3193 3195 3197 3199 3200 3202 3203 3204 3205 3206 3208 3209 3211 3212 3213 3214 3215 3215 3216 3216 3217 3217 3218 3219 3220 3221 3221 3222 3223 3224 3225 3225 3226 3228 3228 3229 3229 3228 3228 3228 3228 3228 3229 3229
3153 3155 3157 3158 3159 3160 3161 3162 3163 3164 3166 3167 3168 3168 3168 3169 3169 3169 3169 3169 3170 3170 3171 3172 3172 3172 3173 3173 3174 3176 3178 3179 3179 3180 3180 3179 3180 3181 3182 3184 3186 3188 3190 3192 3194 3197 3198 3200 3201 3202 3203 3205 3206 3207 3208 3209 3210 3211 3211 3212 3212 3213 3213 3214 3215 3216 3217 3218 3218 3220 3221 3221 3222 3223 3224 3225 3225 3225 3225 3225 3225 3224 3224 3225 3226
3148 3150 3152 3154 3155 3157 3158 3159 3160 3161 3162 3163 3165 3166 3166 3167 3167 3167 3168 3168 3168 3168 3169 3169 3170 3171 3171 3171 3171 3172 3174 3175 3177 3177 3176 3175 3176 3180 3182 3184 3185 3187 3188 3189 3190 3192 3195 3197 3198 3199 3200 3201 3203 3204 3204 3205 3206 3207 3208 3208 3209 3209 3210 3211 3212 3213 3213 3214 3215 3216 3217 3218 3219 3220 3221 3221 3221 3221 3221 3221 3221 3220 3221 3222 3223
3143 3144 3146 3148 3150 3152 3153 3155 3156 3157 3158 3160 3161 3162 3163 3164 3165 3165 3165 3166 3166 3167 3167 3167 3167 3168 3169 3169 3169 3169 3170 3171 3172 3172 3172 3172 3174 3178 3182 3185 3186 3187 3187 3188 3188 3189 3191 3193 3194 3195 3196 3198 3199 3200 3201 3202 3203 3203 3204 3204 3205 3206 3207 3208 3208 3209 3210 3210 3211 3212 3213 3214 3216 3217 3217 3218 3217 3217 3218 3217 3216 3217 3218 3219 3219
3139 3140 3141 3142 3144 3146 3148 3150 3151 3153 3154 3155 3157 3158 3159 3161 3162 3162 3163 3163 3164 3164 3164 3165 3165 3165 3166 3166 3166 3167 3167 3167 3167 3167 3168 3170 3172 3176 3179 3180 3181 3182 3184 3185 3186 3187 3188 3189 3190 3191 3192 3193 3195 3196 3197 3198 3199 3200 3200 3201 3201 3202 3204 3204 3204 3205 3206 3207 3208 3209 3210 3211 3212 3213 3214 3214 3214 3214 3214 3213 3213 3214 3215 3215 3215
3136 3136 3136 3136 3138 3140 3143 3145 3146 3147 3149 3150 3152 3153 3155 3156 3158 3159 3159 3160 3161 3161 3162 3162 3162 3162 3163 3163 3163 3163 3164 3164 3164 3165 3166 3167 3169 3171 3174 3175 3176 3179 3180 3181 3182 3183 3184 3185 3186 3186 3187 3189 3190 3191 3193 3194 3195 3196 3197 3197 3198 3199 3200 3200 3201 3202 3203 3205 3206 3206 3207 3208 3209 3209 3210 3210 3210 3210 3210 3210 3210 3211 3211 3211 3211
3133 3133 3133 3132 3132 3134 3136 3138 3140 3141 3143 3144 3146 3147 3149 3151 3152 3154 3155 3156 3157 3158 3158 3159 3160 3160 3160 3160 3160 3160 3161 3161 3162 3162 3163 3164 3164 3166 3169 3171 3173 3174 3176 3178 3179 3179 3180 3180 3181 3182 3183 3184 3185 3187 3188 3189 3191 3192 3193 3193 3194 3195 3196 3196 3197 3199 3201 3202 3202 3203 3203 3204 3205 3205 3206 3206 3206 3206 3206 3206 3207 3208 3207 3207 3206
3130 3130 3129 3129 3128 3128 3130 3132 3134 3135 3136 3138 3139 3140 3143 3145 3147 3148 3149 3151 3152 3153 3154 3155 3156 3157 3157 3157 3157 3158 3158 3158 3159 3159 3161 3161 3162 3162 3164 3166 3167 3169 3171 3173 3174 3175 3175 3176 3176 3177 3178 3179 3180 3181 3183 3185 3186 3187 3188 3189 3190 3191 3193 3193 3194 3196 3197 3198 3199 3199 3199 3200 3201 3201 3202 3202 3202 3202 3202 3203 3203 3203 3203 3202 3200
3125 3126 3126 3125 3125 3125 3125 3126 3128 3129 3130 3131 3132 3134 3136 3138 3140 3142 3143 3144 3146 3148 3150 3151 3152 3153 3153 3154 3154 3155 3155 3155 3156 3156 3157 3158 3159 3159 3160 3161 3162 3163 3165 3167 3169 3170 3170 3171 3172 3173 3174 3174 3175 3175 3176 3178 3181 3182 3183 3185 3186 3188 3189 3189 3190 3192 3194 3194 3194 3195 3195 3196 3197 3197 3198 3198 3198 3198 3199 3198 3198 3198 3197 3197 3196
3120 3120 3121 3121 3121 3121 3121 3121 3122 3123 3124 3124 3125 3127 3129 3131 3133 3135 3136 3138 3139 3141 3143 3145 3147 3148 3149 3149 3150 3151 3152 3152 3153 3153 3153 3154 3155 3156 3157 3157 3157 3158 3160 3161 3163 3164 3165 3165 3166 3167 3168 3168 3170 3172 3173 3173 3174 3176 3178 3180 3182 3183 3185 3186 3186 3188 3189 3189 3190 3191 3191 3192 3193 3193 3194 3194 3194 3194 3194 3194 3193 3193 3193 3193 3193
3114 3114 3115 3115 3115 3116 3116 3116 3116 3117 3118 3118 3118 3120 3122 3124 3126 3128 3129 3131 3132 3134 3136 3138 3140 3142 3144 3145 3145 3146 3147 3148 3149 3149 3150 3150 3151 3152 3153 3154 3154 3154 3154 3155 3156 3157 3158 3160 3161 3162 3162 3163 3165 3168 3170 3170 3170 3170 3171 3174 3177 3178 3180 3181 3181 3183 3185 3185 3186 3186 3187 3188 3189 3189 3189 3190 3190 3190 3190 3190 3189 3189 3190 3190 3190
3108 3109 3110 3110 3110 3110 3111 3111 3111 3111 3112 3112 3112 3113 3115 3117 3119 3121 3122 3124 3125 3127 3129 3131 3133 3136 3137 3139 3140 3141 3142 3144 3145 3145 3146 3146 3147 3147 3148 3149 3150 3150 3150 3151 3151 3152 3154 3156 3158 3159 3161 3162 3163 3164 3165 3165 3166 3165 3163 3165 3169 3172 3172 3173 3175 3178 3181 3182 3182 3182 3184 3185 3185 3185 3185 3185 3185 3185 3186 3186 3185 3185 3185 3185 3186
3102 3103 3103 3104 3105 3105 3105 3106 3106 3106 3106 3106 3107 3108 3109 3110 3111 3113 3115 3117 3119 3120 3122 3124 3126 3128 3130 3132 3134 3135 3137 3138 3139 3141 3141 3142 3143 3143 3144 3145 3146 3146 3146 3146 3147 3148 3150 3152 3153 3155 3158 3160 3160 3161 3161 3161 3162 3161 3158 3158 3161 3163 3163 3166 3170 3173 3175 3177 3178 3179 3180 3181 3181 3181 3181 3181 3181 3181 3181 3181 3181 3180 3181 3181 3181
3097 3097 3097 3098 3098 3098 3099 3100 3100 3100 3100 3100 3101 3102 3103 3103 3104 3106 3107 3109 3111 3113 3115 3117 3119 3121 3123 3125 3127 3129 3130 3132 3134 3135 3136 3137 3138 3139 3140 3140 3141 3141 3141 3141 3142 3144 3146 3147 3149 3151 3153 3154 3155 3157 3158 3158 3158 3158 3156 3156 3157 3155 3155 3159 3164 3166 3168 3171 3174 3175 3176 3176 3177 3177 3177 3177 3177 3177 3177 3177 3176 3176 3176 3176 3176